^^
B2 Weather Station Historical Data
Daily Summary for December 20, 2017 Units:  English    Metric   Both
« Previous Day
Next Day »
Daily Weekly Monthly Yearly Custom
  High: Low: Average:
Temperature: 42.3 °F 25.3 °F 32.4 °F
Dew Point: 27.5 °F 18.9 °F 24 °F
Humidity: 89 % 52 % 72 %
Wind Speed: 13.8 mph 0.0 mph 3.8 mph
Wind Gust: 13.8 mph - -
Wind:- - ENE
Pressure: 30.17 in 30.08 in -
Precipitation: 0.00 in    
Historical Graphs
 
 
Tabular Data for December 20, 2017
Time Temperature Dew Point Pressure Wind Wind Speed Wind Gust Humidity Rainfall Rate (Hourly) solar Conditions
00:04 33.8 °F 23.3 °F 30.10 in NW 10.4 mph 10.4 mph 65 % 0.00 in 0.0 W/m2 OVC
00:09 33.8 °F 23.6 °F 30.09 in NNW 10.4 mph 10.4 mph 66 % 0.00 in 0.0 W/m2 OVC
00:10 33.7 °F 23.5 °F 30.09 in NNW 10.4 mph 10.4 mph 66 % 0.00 in 0.0 W/m2 OVC
00:11 33.7 °F 23.5 °F 30.09 in NW 10.4 mph 10.4 mph 66 % 0.00 in 0.0 W/m2 OVC
00:16 33.7 °F 23.5 °F 30.09 in NW 11.5 mph 11.5 mph 66 % 0.00 in 0.0 W/m2 OVC
00:21 33.8 °F 23.6 °F 30.09 in NW 9.2 mph 9.2 mph 66 % 0.00 in 0.0 W/m2 OVC
00:24 33.8 °F 23.6 °F 30.09 in NW 9.2 mph 9.2 mph 66 % 0.00 in 0.0 W/m2 OVC
00:27 33.9 °F 23.4 °F 30.09 in NW 11.5 mph 11.5 mph 65 % 0.00 in 0.0 W/m2 OVC
00:32 34.0 °F 23.5 °F 30.10 in NW 9.2 mph 9.2 mph 65 % 0.00 in 0.0 W/m2 OVC
00:35 34.0 °F 23.5 °F 30.10 in NW 11.5 mph 11.5 mph 65 % 0.00 in 0.0 W/m2 OVC
00:37 34.1 °F 23.6 °F 30.10 in NNW 9.2 mph 9.2 mph 65 % 0.00 in 0.0 W/m2 OVC
00:42 34.1 °F 23.2 °F 30.10 in NW 8.1 mph 8.1 mph 64 % 0.00 in 0.0 W/m2 OVC
00:46 33.9 °F 23.4 °F 30.11 in NW 10.4 mph 10.4 mph 65 % 0.00 in 0.0 W/m2 OVC
00:51 33.8 °F 23.3 °F 30.11 in NW 9.2 mph 9.2 mph 65 % 0.00 in 0.0 W/m2 OVC
00:54 33.7 °F 23.2 °F 30.10 in NW 11.5 mph 11.5 mph 65 % 0.00 in 0.0 W/m2 OVC
00:55 33.7 °F 23.2 °F 30.10 in NW 9.2 mph 9.2 mph 65 % 0.00 in 0.0 W/m2 OVC
01:00 33.6 °F 23.1 °F 30.10 in NNW 9.2 mph 9.2 mph 65 % 0.00 in 0.0 W/m2 OVC
01:01 33.6 °F 23.1 °F 30.10 in NNW 3.5 mph 3.5 mph 65 % 0.00 in 0.0 W/m2 OVC
01:06 33.5 °F 23.0 °F 30.10 in NW 8.1 mph 8.1 mph 65 % 0.00 in 0.0 W/m2 OVC
01:23 33.1 °F 23.0 °F 30.11 in NW 8.1 mph 8.1 mph 66 % 0.00 in 0.0 W/m2 OVC
01:24 33.2 °F 23.1 °F 30.11 in NW 5.8 mph 5.8 mph 66 % 0.00 in 0.0 W/m2 OVC
01:31 33.1 °F 23.0 °F 30.11 in NNW 5.8 mph 5.8 mph 66 % 0.00 in 0.0 W/m2 OVC
01:36 33.0 °F 23.2 °F 30.11 in NNW 5.8 mph 5.8 mph 67 % 0.00 in 0.0 W/m2 OVC
01:41 32.9 °F 23.1 °F 30.11 in NNW 5.8 mph 5.8 mph 67 % 0.00 in 0.0 W/m2 OVC
01:46 32.8 °F 23.0 °F 30.11 in NW 5.8 mph 5.8 mph 67 % 0.00 in 0.0 W/m2 OVC
01:47 32.8 °F 23.0 °F 30.11 in NW 5.8 mph   67 % 0.00 in 0.0 W/m2 OVC
01:52 32.9 °F 23.1 °F 30.11 in Calm     67 % 0.00 in 0.0 W/m2 OVC
01:53 32.9 °F 23.1 °F 30.11 in Calm     67 % 0.00 in 0.0 W/m2 OVC
01:58 32.9 °F 22.8 °F 30.12 in Calm     66 % 0.00 in 0.0 W/m2 OVC
01:59 32.9 °F 22.8 °F 30.12 in Calm     66 % 0.00 in 0.0 W/m2 OVC
02:04 32.9 °F 22.8 °F 30.12 in Calm     66 % 0.00 in 0.0 W/m2 OVC
02:06 32.9 °F 22.8 °F 30.12 in Calm     66 % 0.00 in 0.0 W/m2 OVC
02:10 32.9 °F 22.8 °F 30.12 in Calm     66 % 0.00 in 0.0 W/m2 OVC
02:12 32.9 °F 22.8 °F 30.12 in Calm     66 % 0.00 in 0.0 W/m2 OVC
02:15 32.8 °F 23.0 °F 30.12 in Calm     67 % 0.00 in 0.0 W/m2 OVC
02:20 32.7 °F 22.9 °F 30.12 in Calm     67 % 0.00 in 0.0 W/m2 OVC
02:25 32.6 °F 22.8 °F 30.12 in Calm     67 % 0.00 in 0.0 W/m2 OVC
02:28 32.6 °F 22.8 °F 30.13 in Calm     67 % 0.00 in 0.0 W/m2 OVC
02:31 32.6 °F 22.8 °F 30.12 in Calm     67 % 0.00 in 0.0 W/m2 OVC
02:36 32.6 °F 22.8 °F 30.12 in Calm     67 % 0.00 in 0.0 W/m2 OVC
02:41 32.4 °F 22.7 °F 30.11 in Calm     67 % 0.00 in 0.0 W/m2 OVC
02:42 32.4 °F 22.7 °F 30.12 in Calm     67 % 0.00 in 0.0 W/m2 OVC
02:43 32.4 °F 23.0 °F 30.12 in Calm     68 % 0.00 in 0.0 W/m2 OVC
02:47 32.3 °F 22.6 °F 30.12 in Calm     67 % 0.00 in 0.0 W/m2 OVC
02:50 32.4 °F 22.3 °F 30.12 in Calm     66 % 0.00 in 0.0 W/m2 OVC
02:53 32.4 °F 22.3 °F 30.12 in Calm     66 % 0.00 in 0.0 W/m2 OVC
02:54 32.5 °F 22.4 °F 30.12 in Calm     66 % 0.00 in 0.0 W/m2 OVC
02:59 32.5 °F 22.4 °F 30.12 in Calm     66 % 0.00 in 0.0 W/m2 OVC
03:01 32.5 °F 22.4 °F 30.12 in Calm     66 % 0.00 in 0.0 W/m2 OVC
03:05 32.5 °F 22.4 °F 30.11 in Calm     66 % 0.00 in 0.0 W/m2 OVC
03:06 32.5 °F 22.4 °F 30.11 in Calm     66 % 0.00 in 0.0 W/m2 OVC
03:11 32.4 °F 22.3 °F 30.11 in Calm     66 % 0.00 in 0.0 W/m2 OVC
03:12 32.4 °F 22.3 °F 30.11 in Calm     66 % 0.00 in 0.0 W/m2 OVC
03:13 32.3 °F 22.6 °F 30.11 in Calm     67 % 0.00 in 0.0 W/m2 OVC
03:19 32.2 °F 22.5 °F 30.11 in Calm     67 % 0.00 in 0.0 W/m2 OVC
03:21 32.1 °F 22.4 °F 30.11 in Calm     67 % 0.00 in 0.0 W/m2 OVC
03:24 32.0 °F 22.6 °F 30.11 in Calm     68 % 0.00 in 0.0 W/m2 OVC
03:29 31.9 °F 22.5 °F 30.11 in Calm     68 % 0.00 in 0.0 W/m2 OVC
03:30 31.9 °F 22.5 °F 30.11 in Calm     68 % 0.00 in 0.0 W/m2 OVC
03:35 31.8 °F 22.4 °F 30.11 in Calm     68 % 0.00 in 0.0 W/m2 OVC
03:40 31.8 °F 22.4 °F 30.12 in Calm     68 % 0.00 in 0.0 W/m2 OVC
03:41 31.9 °F 22.2 °F 30.12 in Calm     67 % 0.00 in 0.0 W/m2 OVC
03:46 31.9 °F 22.5 °F 30.11 in Calm     68 % 0.00 in 0.0 W/m2 OVC
03:47 32.0 °F 22.6 °F 30.11 in Calm     68 % 0.00 in 0.0 W/m2 OVC
03:52 32.0 °F 22.3 °F 30.11 in Calm     67 % 0.00 in 0.0 W/m2 OVC
03:57 32.0 °F 22.3 °F 30.11 in Calm     67 % 0.00 in 0.0 W/m2 OVC
03:58 31.9 °F 22.5 °F 30.11 in Calm     68 % 0.00 in 0.0 W/m2 OVC
04:03 31.9 °F 22.5 °F 30.12 in Calm     68 % 0.00 in 0.0 W/m2 OVC
04:04 31.9 °F 22.5 °F 30.12 in Calm     68 % 0.00 in 0.0 W/m2 OVC
04:09 31.7 °F 22.7 °F 30.12 in Calm     69 % 0.00 in 0.0 W/m2 OVC
04:11 31.7 °F 22.3 °F 30.12 in Calm     68 % 0.00 in 0.0 W/m2 OVC
04:14 31.7 °F 22.3 °F 30.12 in Calm     68 % 0.00 in 0.0 W/m2 OVC
04:17 31.8 °F 22.4 °F 30.12 in Calm     68 % 0.00 in 0.0 W/m2 OVC
04:20 31.8 °F 22.4 °F 30.12 in Calm     68 % 0.00 in 0.0 W/m2 OVC
04:25 31.8 °F 22.4 °F 30.12 in Calm     68 % 0.00 in 0.0 W/m2 OVC
04:26 31.8 °F 22.4 °F 30.12 in Calm     68 % 0.00 in 0.0 W/m2 OVC
04:27 31.8 °F 22.4 °F 30.12 in Calm     68 % 0.00 in 0.0 W/m2 OVC
04:32 31.7 °F 22.7 °F 30.12 in Calm     69 % 0.00 in 0.0 W/m2 OVC
04:37 31.7 °F 22.7 °F 30.12 in Calm     69 % 0.00 in 0.0 W/m2 OVC
04:42 31.6 °F 22.6 °F 30.13 in Calm     69 % 0.00 in 0.0 W/m2 OVC
04:44 31.6 °F 22.6 °F 30.13 in Calm     69 % 0.00 in 0.0 W/m2 OVC
04:49 31.7 °F 22.3 °F 30.13 in Calm     68 % 0.00 in 0.0 W/m2 OVC
04:50 31.7 °F 22.3 °F 30.13 in Calm     68 % 0.00 in 0.0 W/m2 OVC
04:55 31.6 °F 22.2 °F 30.13 in Calm     68 % 0.00 in 0.0 W/m2 OVC
05:00 31.5 °F 22.1 °F 30.13 in Calm     68 % 0.00 in 0.0 W/m2 OVC
05:01 31.5 °F 22.1 °F 30.13 in Calm     68 % 0.00 in 0.0 W/m2 OVC
05:05 31.4 °F 22.1 °F 30.13 in Calm     68 % 0.00 in 0.0 W/m2 OVC
05:08 31.2 °F 22.2 °F 30.12 in Calm     69 % 0.00 in 0.0 W/m2 OVC
05:11 31.0 °F 22.0 °F 30.13 in Calm     69 % 0.00 in 0.0 W/m2 OVC
05:14 30.7 °F 22.1 °F 30.13 in Calm     70 % 0.00 in 0.0 W/m2 OVC
05:17 30.5 °F 21.9 °F 30.13 in Calm     70 % 0.00 in 0.0 W/m2 OVC
05:22 30.2 °F 21.6 °F 30.13 in Calm     70 % 0.00 in 0.0 W/m2 OVC
05:23 30.2 °F 21.6 °F 30.13 in Calm     70 % 0.00 in 0.0 W/m2 OVC
05:28 29.9 °F 21.3 °F 30.13 in Calm     70 % 0.00 in 0.0 W/m2 OVC
05:29 29.9 °F 21.3 °F 30.13 in Calm     70 % 0.00 in 0.0 W/m2 OVC
05:34 29.8 °F 21.2 °F 30.13 in Calm     70 % 0.00 in 0.0 W/m2 OVC
05:39 29.8 °F 20.9 °F 30.13 in Calm     69 % 0.00 in 0.0 W/m2 OVC
05:44 29.7 °F 20.8 °F 30.13 in Calm     69 % 0.00 in 0.0 W/m2 OVC
05:49 29.6 °F 20.7 °F 30.13 in Calm     69 % 0.00 in 0.0 W/m2 OVC
05:50 29.6 °F 20.7 °F 30.13 in Calm     69 % 0.00 in 0.0 W/m2 OVC
05:52 29.5 °F 20.6 °F 30.13 in Calm     69 % 0.00 in 0.0 W/m2 OVC
05:55 29.4 °F 20.8 °F 30.13 in Calm     70 % 0.00 in 0.0 W/m2 OVC
05:59 29.2 °F 20.6 °F 30.13 in Calm     70 % 0.00 in 0.0 W/m2 OVC
06:00 29.2 °F 20.6 °F 30.14 in Calm     70 % 0.00 in 0.0 W/m2 OVC
06:04 29.2 °F 20.6 °F 30.14 in Calm     70 % 0.00 in 0.0 W/m2 OVC
06:06 29.1 °F 20.5 °F 30.14 in Calm     70 % 0.00 in 0.0 W/m2 OVC
06:11 29.0 °F 20.4 °F 30.14 in Calm     70 % 0.00 in 0.0 W/m2 OVC
06:16 28.8 °F 20.2 °F 30.14 in Calm     70 % 0.00 in 0.0 W/m2 OVC
06:17 28.8 °F 20.2 °F 30.14 in Calm     70 % 0.00 in 0.0 W/m2 OVC
06:22 28.7 °F 20.1 °F 30.15 in Calm     70 % 0.00 in 0.0 W/m2 OVC
06:24 28.7 °F 20.1 °F 30.14 in Calm     70 % 0.00 in 0.0 W/m2 OVC
06:29 28.6 °F 20.1 °F 30.15 in Calm     70 % 0.00 in 0.0 W/m2 OVC
06:32 28.5 °F 20.0 °F 30.15 in Calm     70 % 0.00 in 0.0 W/m2 OVC
06:35 28.5 °F 20.0 °F 30.15 in Calm     70 % 0.00 in 0.0 W/m2 OVC
06:39 28.4 °F 19.9 °F 30.15 in Calm     70 % 0.00 in 0.0 W/m2 OVC
06:43 28.3 °F 20.1 °F 30.15 in Calm     71 % 0.00 in 0.0 W/m2 OVC
06:44 28.3 °F 20.1 °F 30.15 in Calm     71 % 0.00 in 0.0 W/m2 OVC
06:49 28.1 °F 19.9 °F 30.15 in Calm     71 % 0.00 in 0.0 W/m2 BKN
06:50 28.1 °F 19.9 °F 30.15 in Calm     71 % 0.00 in 0.0 W/m2 BKN
06:52 28.0 °F 19.8 °F 30.15 in Calm     71 % 0.00 in 0.0 W/m2 BKN
06:56 27.8 °F 19.6 °F 30.15 in Calm     71 % 0.00 in 0.0 W/m2 BKN
07:01 27.5 °F 19.3 °F 30.15 in Calm     71 % 0.00 in 0.0 W/m2 SCT
07:03 27.4 °F 19.2 °F 30.15 in Calm     71 % 0.00 in 0.0 W/m2 SCT
07:06 27.4 °F 19.6 °F 30.15 in Calm     72 % 0.00 in 0.0 W/m2 SCT
07:11 27.3 °F 19.5 °F 30.16 in Calm     72 % 0.00 in 0.0 W/m2 SCT
07:12 27.3 °F 19.5 °F 30.16 in Calm     72 % 0.00 in 0.0 W/m2 SCT
07:17 27.2 °F 19.4 °F 30.16 in Calm     72 % 0.00 in 0.0 W/m2 SCT
07:18 27.2 °F 19.4 °F 30.16 in Calm     72 % 0.00 in 0.0 W/m2 SCT
07:23 27.1 °F 18.9 °F 30.16 in Calm     71 % 0.00 in 7.0 W/m2 SCT
07:26 27.0 °F 19.2 °F 30.16 in Calm     72 % 0.00 in 9.0 W/m2 SCT
07:28 26.9 °F 19.1 °F 30.16 in Calm     72 % 0.00 in 9.0 W/m2 SCT
07:33 27.0 °F 19.2 °F 30.16 in Calm     72 % 0.00 in 12.0 W/m2 CLR
07:34 26.9 °F 19.1 °F 30.16 in Calm     72 % 0.00 in 12.0 W/m2 CLR
07:37 27.0 °F 19.5 °F 30.16 in Calm     73 % 0.00 in 16.0 W/m2 CLR
07:39 27.1 °F 19.6 °F 30.16 in Calm     73 % 0.00 in 18.0 W/m2 CLR
07:44 27.3 °F 19.5 °F 30.16 in Calm     72 % 0.00 in 25.0 W/m2 CLR
07:45 27.3 °F 19.5 °F 30.16 in Calm     72 % 0.00 in 26.0 W/m2 CLR
07:50 27.5 °F 19.7 °F 30.16 in Calm     72 % 0.00 in 35.0 W/m2 CLR
07:51 27.5 °F 19.7 °F 30.16 in Calm     72 % 0.00 in 37.0 W/m2 CLR
07:52 27.5 °F 19.7 °F 30.16 in Calm     72 % 0.00 in 39.0 W/m2 CLR
07:57 27.8 °F 19.9 °F 30.16 in Calm     72 % 0.00 in 47.0 W/m2 CLR
08:02 28.1 °F 19.9 °F 30.16 in Calm     71 % 0.00 in 60.0 W/m2 CLR
08:03 28.1 °F 19.9 °F 30.16 in Calm     71 % 0.00 in 60.0 W/m2 CLR
08:08 28.3 °F 20.4 °F 30.16 in Calm     72 % 0.00 in 72.0 W/m2 CLR
08:09 28.4 °F 20.5 °F 30.17 in Calm     72 % 0.00 in 74.0 W/m2 CLR
08:11 28.5 °F 20.6 °F 30.17 in Calm     72 % 0.00 in 81.0 W/m2 CLR
08:14 28.7 °F 20.8 °F 30.17 in Calm     72 % 0.00 in 90.0 W/m2 CLR
08:18 28.9 °F 21.0 °F 30.17 in Calm     72 % 0.00 in 98.0 W/m2 CLR
08:19 29.0 °F 21.1 °F 30.17 in Calm     72 % 0.00 in 104.0 W/m2 CLR
08:24 29.5 °F 21.3 °F 30.17 in Calm     71 % 0.00 in 114.0 W/m2 CLR
08:27 29.8 °F 21.5 °F 30.17 in Calm     71 % 0.00 in 127.0 W/m2 CLR
08:30 30.0 °F 21.4 °F 30.17 in Calm     70 % 0.00 in 132.0 W/m2 CLR
08:34 30.4 °F 21.4 °F 30.17 in Calm     69 % 0.00 in 148.0 W/m2 CLR
08:39 30.8 °F 21.8 °F 30.16 in Calm     69 % 0.00 in 160.0 W/m2 CLR
08:41 31.0 °F 21.7 °F 30.16 in Calm     68 % 0.00 in 165.0 W/m2 CLR
08:46 31.5 °F 21.8 °F 30.16 in Calm     67 % 0.00 in 179.0 W/m2 CLR
08:47 31.5 °F 21.8 °F 30.16 in Calm     67 % 0.00 in 183.0 W/m2 CLR
08:50 31.8 °F 22.1 °F 30.16 in Calm     67 % 0.00 in 190.0 W/m2 CLR
08:52 32.0 °F 21.9 °F 30.16 in North 2.3 mph 2.3 mph 66 % 0.00 in 197.0 W/m2 CLR
08:57 32.5 °F 22.8 °F 30.16 in North 3.5 mph 3.5 mph 67 % 0.00 in 213.0 W/m2 CLR
09:02 32.9 °F 23.1 °F 30.16 in NNE 3.5 mph 3.5 mph 67 % 0.00 in 225.0 W/m2 CLR
09:05 33.1 °F 23.0 °F 30.16 in NE 10.4 mph 10.4 mph 66 % 0.00 in 232.0 W/m2 CLR
09:06 33.2 °F 23.1 °F 30.16 in NNE 3.5 mph 3.5 mph 66 % 0.00 in 237.0 W/m2 CLR
09:11 33.6 °F 23.4 °F 30.15 in NNE 6.9 mph 6.9 mph 66 % 0.00 in 246.0 W/m2 CLR
09:16 33.9 °F 23.4 °F 30.15 in NE 8.1 mph 8.1 mph 65 % 0.00 in 257.0 W/m2 CLR
09:18 34.0 °F 23.8 °F 30.15 in North 3.5 mph 3.5 mph 66 % 0.00 in 262.0 W/m2 CLR
09:23 34.3 °F 24.1 °F 30.16 in NE 6.9 mph 6.9 mph 66 % 0.00 in 271.0 W/m2 CLR
09:26 34.4 °F 24.2 °F 30.16 in North 4.6 mph 4.6 mph 66 % 0.00 in 276.0 W/m2 CLR
09:30 34.6 °F 24.4 °F 30.16 in NNE 6.9 mph 6.9 mph 66 % 0.00 in 283.0 W/m2 CLR
09:31 34.7 °F 24.9 °F 30.16 in North 3.5 mph 3.5 mph 67 % 0.00 in 287.0 W/m2 CLR
09:36 34.9 °F 24.7 °F 30.16 in NE 6.9 mph 6.9 mph 66 % 0.00 in 294.0 W/m2 CLR
09:37 34.9 °F 24.7 °F 30.16 in NNE 6.9 mph 6.9 mph 66 % 0.00 in 295.0 W/m2 CLR
09:42 35.2 °F 25.0 °F 30.16 in NNE 6.0 mph 6.0 mph 66 % 0.00 in 304.0 W/m2 CLR
09:44 35.2 °F 25.0 °F 30.16 in NNE 5.8 mph 5.8 mph 66 % 0.00 in 309.0 W/m2 CLR
09:49 35.4 °F 25.2 °F 30.16 in NE 6.9 mph 6.9 mph 66 % 0.00 in 316.0 W/m2 CLR
09:56 35.6 °F 25.4 °F 30.16 in NE 8.0 mph 8.0 mph 66 % 0.00 in 329.0 W/m2 CLR
10:01 35.9 °F 25.6 °F 30.16 in NE 5.8 mph 5.8 mph 66 % 0.00 in 338.0 W/m2 CLR
10:03 35.9 °F 25.6 °F 30.16 in NNE 6.9 mph 6.9 mph 66 % 0.00 in 339.0 W/m2 CLR
10:08 36.4 °F 26.5 °F 30.16 in NNE 7.0 mph 7.0 mph 67 % 0.00 in 346.0 W/m2 CLR
10:09 36.4 °F 26.1 °F 30.16 in NE 7.0 mph 7.0 mph 66 % 0.00 in 350.0 W/m2 CLR
10:14 36.8 °F 26.5 °F 30.16 in NE 5.8 mph 5.8 mph 66 % 0.00 in 355.0 W/m2 CLR
10:15 36.8 °F 26.1 °F 30.16 in NE 9.2 mph 9.2 mph 65 % 0.00 in 357.0 W/m2 CLR
10:16 36.8 °F 26.1 °F 30.16 in NE 10.4 mph 10.4 mph 65 % 0.00 in 359.0 W/m2 CLR
10:21 36.8 °F 26.1 °F 30.16 in NE 9.0 mph 9.0 mph 65 % 0.00 in 366.0 W/m2 CLR
10:24 36.9 °F 26.2 °F 30.16 in NNE 11.5 mph 11.5 mph 65 % 0.00 in 369.0 W/m2 CLR
10:26 37.1 °F 26.4 °F 30.16 in NE 10.4 mph 10.4 mph 65 % 0.00 in 376.0 W/m2 CLR
10:29 37.1 °F 26.0 °F 30.15 in NNE 10.4 mph 10.4 mph 64 % 0.00 in 388.0 W/m2 CLR
10:34 37.4 °F 26.7 °F 30.15 in NNE 9.2 mph 9.2 mph 65 % 0.00 in 396.0 W/m2 CLR
10:35 37.5 °F 26.8 °F 30.15 in NE 5.8 mph 5.8 mph 65 % 0.00 in 396.0 W/m2 CLR
10:40 37.6 °F 26.1 °F 30.15 in NNE 8.1 mph 8.1 mph 63 % 0.00 in 408.0 W/m2 CLR
10:42 37.7 °F 26.6 °F 30.15 in NE 8.1 mph 8.1 mph 64 % 0.00 in 320.0 W/m2 CLR
10:45 37.6 °F 26.5 °F 30.15 in NE 8.1 mph 8.1 mph 64 % 0.00 in 323.0 W/m2 CLR
10:50 37.9 °F 26.8 °F 30.14 in ENE 5.8 mph 5.8 mph 64 % 0.00 in 355.0 W/m2 CLR
10:51 38.1 °F 27.0 °F 30.14 in NE 6.0 mph 6.0 mph 64 % 0.00 in 369.0 W/m2 CLR
10:52 38.2 °F 27.1 °F 30.14 in NE 5.8 mph 5.8 mph 64 % 0.00 in 369.0 W/m2 CLR
10:57 38.5 °F 27.0 °F 30.14 in NE 8.1 mph 8.1 mph 63 % 0.00 in 411.0 W/m2 CLR
10:58 38.5 °F 27.0 °F 30.14 in NE 6.9 mph 6.9 mph 63 % 0.00 in 404.0 W/m2 CLR
11:02 38.8 °F 26.9 °F 30.13 in NE 3.0 mph 3.0 mph 62 % 0.00 in 404.0 W/m2 BKN
11:07 38.9 °F 27.0 °F 30.13 in NE 6.9 mph 6.9 mph 62 % 0.00 in 408.0 W/m2 BKN
11:11 39.1 °F 26.4 °F 30.13 in NNE 6.9 mph 6.9 mph 60 % 0.00 in 413.0 W/m2 BKN
11:13 39.3 °F 27.0 °F 30.13 in NE 3.5 mph 3.5 mph 61 % 0.00 in 413.0 W/m2 BKN
11:19 39.7 °F 26.5 °F 30.13 in NNE 7.0 mph 7.0 mph 59 % 0.00 in 415.0 W/m2 BKN
11:20 39.7 °F 26.9 °F 30.14 in NE 8.1 mph 8.1 mph 60 % 0.00 in 417.0 W/m2 BKN
11:25 39.7 °F 26.5 °F 30.13 in ENE 6.9 mph 6.9 mph 59 % 0.00 in 418.0 W/m2 BKN
11:26 39.6 °F 26.4 °F 30.13 in NE 6.9 mph 6.9 mph 59 % 0.00 in 420.0 W/m2 BKN
11:31 39.6 °F 26.4 °F 30.13 in ENE 6.9 mph 6.9 mph 59 % 0.00 in 420.0 W/m2 SCT
11:32 39.6 °F 26.4 °F 30.13 in ENE 9.2 mph 9.2 mph 59 % 0.00 in 420.0 W/m2 SCT
11:33 39.6 °F 26.4 °F 30.13 in NE 4.0 mph 4.0 mph 59 % 0.00 in 420.0 W/m2 SCT
11:38 39.8 °F 26.6 °F 30.13 in ENE 9.2 mph 9.2 mph 59 % 0.00 in 420.0 W/m2 SCT
11:43 39.7 °F 26.1 °F 30.13 in NE 3.5 mph 3.5 mph 58 % 0.00 in 424.0 W/m2 SCT
11:44 39.7 °F 26.5 °F 30.13 in NE 5.8 mph 5.8 mph 59 % 0.00 in 424.0 W/m2 SCT
11:49 39.8 °F 26.2 °F 30.13 in ENE 3.5 mph 3.5 mph 58 % 0.00 in 425.0 W/m2 CLR
11:50 40.0 °F 26.8 °F 30.13 in ENE 4.6 mph 4.6 mph 59 % 0.00 in 424.0 W/m2 CLR
11:55 40.4 °F 26.8 °F 30.12 in NNE 6.9 mph 6.9 mph 58 % 0.00 in 427.0 W/m2 CLR
11:57 40.4 °F 26.4 °F 30.12 in NE 12.7 mph 12.7 mph 57 % 0.00 in 425.0 W/m2 CLR
12:02 40.2 °F 26.6 °F 30.12 in NE 5.8 mph 5.8 mph 58 % 0.00 in 424.0 W/m2 CLR
12:03 40.2 °F 26.6 °F 30.12 in NNE 2.3 mph 2.3 mph 58 % 0.00 in 424.0 W/m2 CLR
12:07 40.3 °F 26.7 °F 30.12 in North 6.9 mph 6.9 mph 58 % 0.00 in 424.0 W/m2 CLR
12:12 40.0 °F 26.0 °F 30.12 in NNE 8.1 mph 8.1 mph 57 % 0.00 in 425.0 W/m2 CLR
12:15 40.0 °F 26.4 °F 30.12 in NNE 3.5 mph 3.5 mph 58 % 0.00 in 424.0 W/m2 CLR
12:20 40.3 °F 25.8 °F 30.12 in ENE 9.2 mph 9.2 mph 56 % 0.00 in 427.0 W/m2 CLR
12:21 40.3 °F 25.8 °F 30.12 in East 5.8 mph 5.8 mph 56 % 0.00 in 431.0 W/m2 CLR
12:26 40.4 °F 26.8 °F 30.11 in NE 4.6 mph 4.6 mph 58 % 0.00 in 429.0 W/m2 CLR
12:30 40.5 °F 26.4 °F 30.11 in NE 6.9 mph 6.9 mph 57 % 0.00 in 422.0 W/m2 CLR
12:31 40.5 °F 26.0 °F 30.11 in NE 4.6 mph 4.6 mph 56 % 0.00 in 420.0 W/m2 CLR
12:36 40.6 °F 26.5 °F 30.11 in ENE 3.5 mph 3.5 mph 57 % 0.00 in 418.0 W/m2 CLR
12:38 40.7 °F 26.6 °F 30.11 in ENE 3.5 mph 3.5 mph 57 % 0.00 in 418.0 W/m2 CLR
12:42 40.9 °F 26.4 °F 30.11 in NNE 5.8 mph 5.8 mph 56 % 0.00 in 422.0 W/m2 CLR
12:45 41.0 °F 26.1 °F 30.11 in NNE 4.6 mph 4.6 mph 55 % 0.00 in 431.0 W/m2 CLR
12:48 40.9 °F 26.0 °F 30.11 in NNE 4.6 mph 4.6 mph 55 % 0.00 in 439.0 W/m2 CLR
12:53 41.1 °F 26.6 °F 30.11 in NNE 5.0 mph 5.0 mph 56 % 0.00 in 452.0 W/m2 CLR
12:54 41.1 °F 26.1 °F 30.11 in North 6.9 mph 6.9 mph 55 % 0.00 in 448.0 W/m2 CLR
12:59 41.4 °F 26.0 °F 30.11 in NE 5.8 mph 5.8 mph 54 % 0.00 in 462.0 W/m2 CLR
13:00 41.3 °F 25.9 °F 30.11 in NE 5.8 mph 5.8 mph 54 % 0.00 in 462.0 W/m2 CLR
13:02 41.3 °F 26.3 °F 30.10 in North 2.3 mph 2.3 mph 55 % 0.00 in 485.0 W/m2 CLR
13:05 41.6 °F 26.2 °F 30.10 in NE 8.1 mph 8.1 mph 54 % 0.00 in 496.0 W/m2 CLR
13:10 41.7 °F 25.8 °F 30.10 in NE 5.8 mph 5.8 mph 53 % 0.00 in 513.0 W/m2 CLR
13:11 41.7 °F 26.3 °F 30.10 in NE 5.8 mph 5.8 mph 54 % 0.00 in 522.0 W/m2 CLR
13:16 42.1 °F 26.6 °F 30.10 in NNE 8.0 mph 8.0 mph 54 % 0.00 in 482.0 W/m2 CLR
13:18 42.2 °F 26.7 °F 30.10 in East 6.9 mph 6.9 mph 54 % 0.00 in 315.0 W/m2 CLR
13:21 42.1 °F 26.2 °F 30.10 in NE 5.8 mph 5.8 mph 53 % 0.00 in 362.0 W/m2 CLR
13:26 42.3 °F 25.9 °F 30.09 in NE 5.0 mph 5.0 mph 52 % 0.00 in 415.0 W/m2 CLR
13:27 42.3 °F 25.9 °F 30.10 in North 9.2 mph 9.2 mph 52 % 0.00 in 341.0 W/m2 CLR
13:32 42.2 °F 25.8 °F 30.09 in NE 7.0 mph 7.0 mph 52 % 0.00 in 322.0 W/m2 CLR
13:37 41.9 °F 25.5 °F 30.09 in NNE 6.0 mph 6.0 mph 52 % 0.00 in 302.0 W/m2 CLR
13:38 41.9 °F 26.0 °F 30.09 in NE 5.8 mph 5.8 mph 53 % 0.00 in 287.0 W/m2 CLR
13:42 42.0 °F 25.6 °F 30.09 in NE 4.6 mph 4.6 mph 52 % 0.00 in 250.0 W/m2 CLR
13:47 41.7 °F 25.8 °F 30.09 in NNE 10.0 mph 10.0 mph 53 % 0.00 in 237.0 W/m2 CLR
13:48 41.6 °F 27.1 °F 30.09 in NNE 11.5 mph 11.5 mph 56 % 0.00 in 244.0 W/m2 CLR
13:53 40.6 °F 27.0 °F 30.09 in NE 12.7 mph 12.7 mph 58 % 0.00 in 251.0 W/m2 CLR
13:54 40.4 °F 27.2 °F 30.09 in NE 12.7 mph 12.7 mph 59 % 0.00 in 346.0 W/m2 CLR
13:59 39.8 °F 27.0 °F 30.09 in NNE 13.0 mph 13.0 mph 60 % 0.00 in 251.0 W/m2 CLR
14:00 39.7 °F 27.3 °F 30.09 in NE 12.7 mph 12.7 mph 61 % 0.00 in 313.0 W/m2 CLR
14:05 39.9 °F 27.5 °F 30.09 in NNE 13.8 mph 13.8 mph 61 % 0.00 in 255.0 W/m2 CLR
14:06 39.9 °F 27.5 °F 30.09 in NE 11.5 mph 11.5 mph 61 % 0.00 in 237.0 W/m2 CLR
14:07 39.8 °F 27.0 °F 30.09 in NE 12.7 mph 12.7 mph 60 % 0.00 in 227.0 W/m2 CLR
14:12 39.3 °F 27.0 °F 30.09 in NNE 11.5 mph 11.5 mph 61 % 0.00 in 188.0 W/m2 CLR
14:14 39.1 °F 26.8 °F 30.09 in North 11.5 mph 11.5 mph 61 % 0.00 in 179.0 W/m2 CLR
14:18 38.8 °F 26.9 °F 30.09 in NE 11.5 mph 11.5 mph 62 % 0.00 in 172.0 W/m2 CLR
14:20 38.6 °F 26.7 °F 30.09 in NNE 11.5 mph 11.5 mph 62 % 0.00 in 158.0 W/m2 CLR
14:23 38.4 °F 26.9 °F 30.09 in NNE 12.0 mph 12.0 mph 63 % 0.00 in 156.0 W/m2 CLR
14:28 38.0 °F 26.5 °F 30.09 in NNE 12.7 mph 12.7 mph 63 % 0.00 in 153.0 W/m2 CLR
14:33 37.9 °F 26.8 °F 30.09 in NNE 11.5 mph 11.5 mph 64 % 0.00 in 171.0 W/m2 CLR
14:37 37.9 °F 26.8 °F 30.09 in NE 9.2 mph 9.2 mph 64 % 0.00 in 149.0 W/m2 CLR
14:38 37.8 °F 26.7 °F 30.09 in NE 9.0 mph 9.0 mph 64 % 0.00 in 141.0 W/m2 CLR
14:43 37.6 °F 26.5 °F 30.08 in NE 12.7 mph 12.7 mph 64 % 0.00 in 128.0 W/m2 CLR
14:47 37.3 °F 26.2 °F 30.09 in NNE 12.7 mph 12.7 mph 64 % 0.00 in 148.0 W/m2 CLR
14:52 37.3 °F 26.2 °F 30.09 in NE 11.5 mph 11.5 mph 64 % 0.00 in 172.0 W/m2 CLR
14:53 37.3 °F 26.2 °F 30.09 in ENE 8.1 mph 8.1 mph 64 % 0.00 in 141.0 W/m2 CLR
14:58 37.2 °F 26.1 °F 30.09 in NE 8.1 mph 8.1 mph 64 % 0.00 in 146.0 W/m2 CLR
15:03 37.2 °F 26.1 °F 30.09 in NE 10.4 mph 10.4 mph 64 % 0.00 in 121.0 W/m2 CLR
15:04 37.2 °F 26.1 °F 30.09 in NE 10.4 mph 10.4 mph 64 % 0.00 in 121.0 W/m2 CLR
15:08 37.2 °F 26.1 °F 30.09 in NNE 6.9 mph 6.9 mph 64 % 0.00 in 111.0 W/m2 CLR
15:09 37.1 °F 26.0 °F 30.09 in NE 11.5 mph 11.5 mph 64 % 0.00 in 132.0 W/m2 CLR
15:14 36.9 °F 25.9 °F 30.09 in NNE 11.5 mph 11.5 mph 64 % 0.00 in 113.0 W/m2 CLR
15:15 36.8 °F 25.8 °F 30.09 in NE 12.7 mph 12.7 mph 64 % 0.00 in 95.0 W/m2 CLR
15:20 36.5 °F 25.8 °F 30.10 in NNE 11.5 mph 11.5 mph 65 % 0.00 in 109.0 W/m2 CLR
15:21 36.5 °F 25.8 °F 30.10 in NE 11.5 mph 11.5 mph 65 % 0.00 in 109.0 W/m2 CLR
15:25 36.2 °F 25.6 °F 30.10 in NNE 8.1 mph 8.1 mph 65 % 0.00 in 74.0 W/m2 CLR
15:26 36.2 °F 25.9 °F 30.10 in NNE 8.1 mph 8.1 mph 66 % 0.00 in 74.0 W/m2 CLR
15:31 35.9 °F 25.6 °F 30.10 in NE 11.5 mph 11.5 mph 66 % 0.00 in 67.0 W/m2 CLR
15:36 35.5 °F 25.3 °F 30.10 in NNE 10.4 mph 10.4 mph 66 % 0.00 in 62.0 W/m2 CLR
15:40 35.3 °F 25.4 °F 30.11 in NNE 10.0 mph 10.0 mph 67 % 0.00 in 54.0 W/m2 CLR
15:43 35.2 °F 25.3 °F 30.11 in North 8.1 mph 8.1 mph 67 % 0.00 in 46.0 W/m2 CLR
15:46 35.2 °F 25.7 °F 30.10 in NNE 9.2 mph 9.2 mph 68 % 0.00 in 39.0 W/m2 CLR
15:48 35.0 °F 25.5 °F 30.11 in NE 10.4 mph 10.4 mph 68 % 0.00 in 37.0 W/m2 CLR
15:52 34.7 °F 25.6 °F 30.10 in NNE 9.2 mph 9.2 mph 69 % 0.00 in 30.0 W/m2 CLR
15:58 34.3 °F 25.5 °F 30.11 in NNE 9.2 mph 9.2 mph 70 % 0.00 in 19.0 W/m2 CLR
16:00 34.2 °F 25.4 °F 30.11 in NNE 10.4 mph 10.4 mph 70 % 0.00 in 19.0 W/m2 CLR
16:05 33.8 °F 25.0 °F 30.11 in NNE 8.1 mph 8.1 mph 70 % 0.00 in 14.0 W/m2 CLR
16:10 33.4 °F 25.0 °F 30.11 in NNE 3.5 mph 3.5 mph 71 % 0.00 in 11.0 W/m2 CLR
16:11 33.2 °F 24.8 °F 30.10 in NE 4.6 mph 4.6 mph 71 % 0.00 in 11.0 W/m2 CLR
16:16 32.8 °F 24.8 °F 30.11 in NNE 5.8 mph 5.8 mph 72 % 0.00 in 7.0 W/m2 CLR
16:17 32.7 °F 24.7 °F 30.11 in NNE 5.8 mph 5.8 mph 72 % 0.00 in 7.0 W/m2 CLR
16:22 32.3 °F 24.6 °F 30.11 in NNE 4.0 mph 4.0 mph 73 % 0.00 in 5.0 W/m2 CLR
16:27 31.8 °F 24.1 °F 30.11 in NNE 6.9 mph 6.9 mph 73 % 0.00 in 0.0 W/m2 CLR
16:28 31.8 °F 24.1 °F 30.11 in NNE 6.9 mph 6.9 mph 73 % 0.00 in 0.0 W/m2 CLR
16:29 31.8 °F 24.1 °F 30.10 in NNE 4.6 mph 4.6 mph 73 % 0.00 in 0.0 W/m2 CLR
16:34 31.4 °F 23.7 °F 30.11 in Calm     73 % 0.00 in 0.0 W/m2 CLR
16:37 31.3 °F 24.0 °F 30.11 in Calm     74 % 0.00 in 0.0 W/m2 CLR
16:41 31.0 °F 23.7 °F 30.11 in NE 3.5 mph 3.5 mph 74 % 0.00 in 0.0 W/m2 CLR
16:46 30.7 °F 23.4 °F 30.11 in Calm     74 % 0.00 in 0.0 W/m2 CLR
16:51 30.4 °F 23.4 °F 30.11 in Calm     75 % 0.00 in 0.0 W/m2 CLR
16:52 30.3 °F 23.3 °F 30.11 in Calm     75 % 0.00 in 0.0 W/m2 CLR
16:57 29.9 °F 22.9 °F 30.11 in Calm     75 % 0.00 in 0.0 W/m2 CLR
17:02 29.7 °F 23.1 °F 30.11 in Calm     76 % 0.00 in 0.0 W/m2 SCT
17:03 29.7 °F 23.1 °F 30.11 in Calm     76 % 0.00 in 0.0 W/m2 SCT
17:08 29.7 °F 23.4 °F 30.11 in Calm     77 % 0.00 in 0.0 W/m2 SCT
17:10 29.7 °F 23.7 °F 30.11 in Calm     78 % 0.00 in 0.0 W/m2 SCT
17:11 29.7 °F 23.7 °F 30.11 in Calm     78 % 0.00 in 0.0 W/m2 SCT
17:16 30.0 °F 24.3 °F 30.10 in NE 3.5 mph 3.5 mph 79 % 0.00 in 0.0 W/m2 SCT
17:17 30.0 °F 24.3 °F 30.10 in NE 3.5 mph 3.5 mph 79 % 0.00 in 0.0 W/m2 SCT
17:22 30.2 °F 24.8 °F 30.10 in NE 6.9 mph 6.9 mph 80 % 0.00 in 0.0 W/m2 SCT
17:27 30.4 °F 25.0 °F 30.11 in NE 5.0 mph 5.0 mph 80 % 0.00 in 0.0 W/m2 SCT
17:28 30.5 °F 25.1 °F 30.11 in NE 5.8 mph 5.8 mph 80 % 0.00 in 0.0 W/m2 SCT
17:33 30.6 °F 25.2 °F 30.11 in NE 6.9 mph 6.9 mph 80 % 0.00 in 0.0 W/m2 BKN
17:34 30.6 °F 25.2 °F 30.11 in NE 4.6 mph 4.6 mph 80 % 0.00 in 0.0 W/m2 BKN
17:39 30.6 °F 25.2 °F 30.11 in NE 5.0 mph 5.0 mph 80 % 0.00 in 0.0 W/m2 BKN
17:40 30.7 °F 25.6 °F 30.11 in NE 4.6 mph 4.6 mph 81 % 0.00 in 0.0 W/m2 BKN
17:42 30.7 °F 25.6 °F 30.11 in NNE 10.4 mph 10.4 mph 81 % 0.00 in 0.0 W/m2 BKN
17:45 30.8 °F 25.4 °F 30.11 in NE 4.6 mph 4.6 mph 80 % 0.00 in 0.0 W/m2 BKN
17:51 30.8 °F 25.7 °F 30.11 in NE 5.8 mph 5.8 mph 81 % 0.00 in 0.0 W/m2 BKN
17:54 30.8 °F 25.7 °F 30.11 in NNE 10.4 mph 10.4 mph 81 % 0.00 in 0.0 W/m2 BKN
17:59 30.8 °F 25.7 °F 30.11 in NNE 8.1 mph 8.1 mph 81 % 0.00 in 0.0 W/m2 BKN
18:04 30.7 °F 25.6 °F 30.11 in NE 6.9 mph 6.9 mph 81 % 0.00 in 0.0 W/m2 OVC
18:06 30.8 °F 26.0 °F 30.11 in NE 6.9 mph 6.9 mph 82 % 0.00 in 0.0 W/m2 OVC
18:10 30.7 °F 25.9 °F 30.11 in NE 6.0 mph 6.0 mph 82 % 0.00 in 0.0 W/m2 OVC
18:11 30.7 °F 25.9 °F 30.11 in NE 10.4 mph 10.4 mph 82 % 0.00 in 0.0 W/m2 OVC
18:17 30.7 °F 25.9 °F 30.11 in NE 11.5 mph 11.5 mph 82 % 0.00 in 0.0 W/m2 OVC
18:21 30.6 °F 25.8 °F 30.11 in NNE 10.4 mph 10.4 mph 82 % 0.00 in 0.0 W/m2 OVC
18:22 30.6 °F 25.8 °F 30.11 in NNE 8.1 mph 8.1 mph 82 % 0.00 in 0.0 W/m2 OVC
18:27 30.4 °F 25.6 °F 30.11 in NE 11.5 mph 11.5 mph 82 % 0.00 in 0.0 W/m2 OVC
18:31 30.2 °F 25.4 °F 30.11 in NNE 8.1 mph 8.1 mph 82 % 0.00 in 0.0 W/m2 OVC
18:33 30.2 °F 25.4 °F 30.11 in NE 9.2 mph 9.2 mph 82 % 0.00 in 0.0 W/m2 OVC
18:38 30.0 °F 25.5 °F 30.11 in ENE 10.4 mph 10.4 mph 83 % 0.00 in 0.0 W/m2 OVC
18:40 29.9 °F 25.4 °F 30.11 in NE 6.9 mph 6.9 mph 83 % 0.00 in 0.0 W/m2 OVC
18:44 29.9 °F 25.4 °F 30.11 in NNE 8.1 mph 8.1 mph 83 % 0.00 in 0.0 W/m2 OVC
18:46 29.9 °F 25.4 °F 30.11 in NE 9.2 mph 9.2 mph 83 % 0.00 in 0.0 W/m2 OVC
18:49 29.9 °F 25.7 °F 30.11 in NE 9.2 mph 9.2 mph 84 % 0.00 in 0.0 W/m2 OVC
18:50 29.9 °F 25.7 °F 30.11 in NE 9.2 mph 9.2 mph 84 % 0.00 in 0.0 W/m2 OVC
18:54 30.0 °F 25.8 °F 30.11 in NNE 8.1 mph 8.1 mph 84 % 0.00 in 0.0 W/m2 OVC
18:56 29.9 °F 25.4 °F 30.11 in NE 6.9 mph 6.9 mph 83 % 0.00 in 0.0 W/m2 OVC
19:00 29.8 °F 25.3 °F 30.11 in NE 3.5 mph 3.5 mph 83 % 0.00 in 0.0 W/m2 OVC
19:05 29.6 °F 25.4 °F 30.11 in ENE 8.1 mph 8.1 mph 84 % 0.00 in 0.0 W/m2 OVC
19:06 29.5 °F 25.3 °F 30.11 in NE 8.1 mph 8.1 mph 84 % 0.00 in 0.0 W/m2 OVC
19:08 29.5 °F 25.3 °F 30.10 in NE 4.6 mph 4.6 mph 84 % 0.00 in 0.0 W/m2 OVC
19:11 29.4 °F 25.2 °F 30.10 in NE 3.5 mph 3.5 mph 84 % 0.00 in 0.0 W/m2 OVC
19:15 29.4 °F 25.2 °F 30.10 in NE 2.3 mph 2.3 mph 84 % 0.00 in 0.0 W/m2 OVC
19:16 29.4 °F 25.2 °F 30.10 in NE 5.0 mph 5.0 mph 84 % 0.00 in 0.0 W/m2 OVC
19:21 29.3 °F 25.1 °F 30.10 in NE 4.0 mph 4.0 mph 84 % 0.00 in 0.0 W/m2 OVC
19:24 29.2 °F 25.0 °F 30.10 in NE 3.5 mph 3.5 mph 84 % 0.00 in 0.0 W/m2 OVC
19:29 29.2 °F 25.3 °F 30.11 in NE 2.3 mph 2.3 mph 85 % 0.00 in 0.0 W/m2 OVC
19:31 29.2 °F 25.3 °F 30.11 in NE 3.5 mph 3.5 mph 85 % 0.00 in 0.0 W/m2 OVC
19:32 29.3 °F 25.4 °F 30.11 in NE 3.0 mph 3.0 mph 85 % 0.00 in 0.0 W/m2 OVC
19:37 29.4 °F 25.4 °F 30.11 in NE 4.0 mph 4.0 mph 85 % 0.00 in 0.0 W/m2 OVC
19:38 29.4 °F 25.4 °F 30.11 in NE 3.5 mph 3.5 mph 85 % 0.00 in 0.0 W/m2 OVC
19:39 29.4 °F 25.4 °F 30.11 in NE 3.5 mph 3.5 mph 85 % 0.00 in 0.0 W/m2 OVC
19:43 29.4 °F 25.4 °F 30.11 in Calm     85 % 0.00 in 0.0 W/m2 OVC
19:48 29.2 °F 25.0 °F 30.12 in NE 3.5 mph 3.5 mph 84 % 0.00 in 0.0 W/m2 BKN
19:49 29.2 °F 25.3 °F 30.11 in NE 3.5 mph 3.5 mph 85 % 0.00 in 0.0 W/m2 BKN
19:50 29.2 °F 25.3 °F 30.11 in NE 2.3 mph 2.3 mph 85 % 0.00 in 0.0 W/m2 BKN
19:54 29.0 °F 24.8 °F 30.11 in NE 2.3 mph 2.3 mph 84 % 0.00 in 0.0 W/m2 BKN
19:56 28.9 °F 24.7 °F 30.11 in NE 1.2 mph 1.2 mph 84 % 0.00 in 0.0 W/m2 BKN
20:06 28.4 °F 24.5 °F 30.11 in NE 3.0 mph 3.0 mph 85 % 0.00 in 0.0 W/m2 BKN
20:08 28.4 °F 24.5 °F 30.11 in ENE 2.3 mph 2.3 mph 85 % 0.00 in 0.0 W/m2 BKN
20:12 28.3 °F 24.4 °F 30.10 in ENE 3.5 mph 3.5 mph 85 % 0.00 in 0.0 W/m2 BKN
20:14 28.2 °F 24.3 °F 30.10 in ENE 3.5 mph 3.5 mph 85 % 0.00 in 0.0 W/m2 BKN
20:19 28.1 °F 24.5 °F 30.10 in ENE 3.5 mph 3.5 mph 86 % 0.00 in 0.0 W/m2 BKN
20:20 28.1 °F 24.5 °F 30.10 in ENE 2.3 mph   86 % 0.00 in 0.0 W/m2 BKN
20:25 27.9 °F 24.3 °F 30.10 in Calm     86 % 0.00 in 0.0 W/m2 BKN
20:26 27.9 °F 24.3 °F 30.10 in Calm     86 % 0.00 in 0.0 W/m2 BKN
20:27 27.9 °F 24.3 °F 30.10 in Calm     86 % 0.00 in 0.0 W/m2 BKN
20:32 27.7 °F 24.1 °F 30.10 in Calm     86 % 0.00 in 0.0 W/m2 BKN
20:37 27.5 °F 23.9 °F 30.10 in Calm     86 % 0.00 in 0.0 W/m2 BKN
20:38 27.5 °F 23.9 °F 30.10 in ENE 2.0 mph 2.0 mph 86 % 0.00 in 0.0 W/m2 BKN
20:43 27.4 °F 23.8 °F 30.10 in Calm     86 % 0.00 in 0.0 W/m2 BKN
20:48 27.2 °F 23.6 °F 30.09 in Calm     86 % 0.00 in 0.0 W/m2 SCT
20:51 27.1 °F 23.5 °F 30.09 in Calm     86 % 0.00 in 0.0 W/m2 SCT
20:53 27.1 °F 23.7 °F 30.09 in Calm     87 % 0.00 in 0.0 W/m2 SCT
20:57 27.0 °F 23.6 °F 30.09 in Calm     87 % 0.00 in 0.0 W/m2 SCT
21:01 27.0 °F 23.6 °F 30.09 in Calm     87 % 0.00 in 0.0 W/m2 SCT
21:06 27.0 °F 23.6 °F 30.09 in Calm     87 % 0.00 in 0.0 W/m2 SCT
21:08 27.1 °F 23.7 °F 30.08 in Calm     87 % 0.00 in 0.0 W/m2 SCT
21:13 27.1 °F 23.7 °F 30.08 in Calm     87 % 0.00 in 0.0 W/m2 SCT
21:18 27.0 °F 23.6 °F 30.08 in Calm     87 % 0.00 in 0.0 W/m2 SCT
21:20 27.0 °F 23.6 °F 30.08 in Calm     87 % 0.00 in 0.0 W/m2 SCT
21:21 27.0 °F 23.6 °F 30.08 in Calm     87 % 0.00 in 0.0 W/m2 SCT
21:25 27.1 °F 23.7 °F 30.08 in Calm     87 % 0.00 in 0.0 W/m2 SCT
21:29 27.2 °F 24.1 °F 30.08 in Calm     88 % 0.00 in 0.0 W/m2 SCT
21:33 27.3 °F 24.2 °F 30.08 in Calm     88 % 0.00 in 0.0 W/m2 SCT
21:38 27.4 °F 24.3 °F 30.08 in Calm     88 % 0.00 in 0.0 W/m2 SCT
21:39 27.4 °F 24.3 °F 30.08 in Calm     88 % 0.00 in 0.0 W/m2 SCT
21:44 27.5 °F 24.4 °F 30.08 in Calm     88 % 0.00 in 0.0 W/m2 SCT
21:45 27.5 °F 24.4 °F 30.08 in Calm     88 % 0.00 in 0.0 W/m2 SCT
21:50 27.7 °F 24.6 °F 30.08 in Calm     88 % 0.00 in 0.0 W/m2 CLR
21:52 27.8 °F 24.7 °F 30.08 in Calm     88 % 0.00 in 0.0 W/m2 CLR
21:53 27.8 °F 24.7 °F 30.08 in Calm     88 % 0.00 in 0.0 W/m2 CLR
21:58 27.9 °F 24.5 °F 30.08 in Calm     87 % 0.00 in 0.0 W/m2 CLR
21:59 27.9 °F 24.5 °F 30.08 in Calm     87 % 0.00 in 0.0 W/m2 CLR
22:00 27.9 °F 24.5 °F 30.09 in Calm     87 % 0.00 in 0.0 W/m2 CLR
22:05 27.9 °F 24.5 °F 30.09 in Calm     87 % 0.00 in 0.0 W/m2 SCT
22:08 27.8 °F 24.2 °F 30.09 in Calm     86 % 0.00 in 0.0 W/m2 SCT
22:10 27.5 °F 23.9 °F 30.09 in Calm     86 % 0.00 in 0.0 W/m2 SCT
22:15 27.1 °F 23.5 °F 30.09 in Calm     86 % 0.00 in 0.0 W/m2 SCT
22:16 27.0 °F 23.4 °F 30.09 in Calm     86 % 0.00 in 0.0 W/m2 SCT
22:21 26.7 °F 23.4 °F 30.09 in Calm     87 % 0.00 in 0.0 W/m2 SCT
22:26 26.4 °F 23.1 °F 30.09 in Calm     87 % 0.00 in 0.0 W/m2 SCT
22:29 26.0 °F 22.4 °F 30.09 in Calm     86 % 0.00 in 0.0 W/m2 SCT
22:31 25.6 °F 22.0 °F 30.09 in Calm     86 % 0.00 in 0.0 W/m2 CLR
22:35 25.4 °F 22.1 °F 30.09 in Calm     87 % 0.00 in 0.0 W/m2 CLR
22:38 25.3 °F 22.0 °F 30.09 in Calm     87 % 0.00 in 0.0 W/m2 CLR
22:42 25.4 °F 22.3 °F 30.10 in Calm     88 % 0.00 in 0.0 W/m2 CLR
22:43 25.4 °F 22.3 °F 30.10 in Calm     88 % 0.00 in 0.0 W/m2 CLR
22:47 25.7 °F 22.9 °F 30.10 in Calm     89 % 0.00 in 0.0 W/m2 CLR
22:49 25.8 °F 23.0 °F 30.10 in Calm     89 % 0.00 in 0.0 W/m2 CLR
22:54 26.1 °F 23.3 °F 30.11 in Calm     89 % 0.00 in 0.0 W/m2 CLR
22:56 26.2 °F 23.4 °F 30.10 in Calm     89 % 0.00 in 0.0 W/m2 CLR
23:00 26.5 °F 23.7 °F 30.10 in Calm     89 % 0.00 in 0.0 W/m2 CLR
23:01 26.7 °F 23.9 °F 30.11 in Calm     89 % 0.00 in 0.0 W/m2 CLR
23:05 26.9 °F 24.1 °F 30.10 in Calm     89 % 0.00 in 0.0 W/m2 CLR
23:09 27.3 °F 24.5 °F 30.10 in Calm     89 % 0.00 in 0.0 W/m2 CLR
23:10 27.4 °F 24.6 °F 30.10 in North 2.3 mph 2.3 mph 89 % 0.00 in 0.0 W/m2 CLR
23:15 27.8 °F 25.0 °F 30.10 in Calm   0.6 mph 89 % 0.00 in 0.0 W/m2 CLR
23:16 27.8 °F 25.0 °F 30.10 in North 3.5 mph 3.5 mph 89 % 0.00 in 0.0 W/m2 BKN
23:19 28.0 °F 25.2 °F 30.10 in Calm     89 % 0.00 in 0.0 W/m2 BKN
23:21 28.1 °F 25.3 °F 30.10 in Calm     89 % 0.00 in 0.0 W/m2 BKN
23:26 28.4 °F 25.3 °F 30.11 in Calm     88 % 0.00 in 0.0 W/m2 BKN
23:27 28.4 °F 25.3 °F 30.11 in Calm     88 % 0.00 in 0.0 W/m2 BKN
23:32 28.6 °F 25.5 °F 30.10 in Calm     88 % 0.00 in 0.0 W/m2 OVC
23:37 28.8 °F 25.7 °F 30.09 in NNE 2.3 mph 2.3 mph 88 % 0.00 in 0.0 W/m2 OVC
23:42 28.9 °F 25.8 °F 30.09 in Calm     88 % 0.00 in 0.0 W/m2 OVC
23:47 29.0 °F 25.9 °F 30.09 in Calm     88 % 0.00 in 0.0 W/m2 OVC
23:48 29.0 °F 25.9 °F 30.09 in Calm     88 % 0.00 in 0.0 W/m2 OVC
23:49 29.1 °F 26.0 °F 30.09 in Calm     88 % 0.00 in 0.0 W/m2 OVC
23:53 29.2 °F 25.8 °F 30.09 in Calm     87 % 0.00 in 0.0 W/m2 OVC
23:56 29.4 °F 26.0 °F 30.09 in Calm     87 % 0.00 in 0.0 W/m2 OVC
23:59 29.5 °F 26.1 °F 30.10 in Calm     87 % 0.00 in 0.0 W/m2 OVC
Bourbonnais, Illinois, USA
Compliments of Weather Underground - 4.25 mb